Location: Oregon Star Party
(44.2935°N, 120.1332°W)
Time: 15:10:33
(UTC-07:00)

Amateur Radio Satellites - All Passes

Search period start: 23 July 2014 14:40
Search period end: 24 July 2014 14:40
Location: Oregon Star Party, 44.2935°N, 120.1332°W

Satellite Date Start Highest point End Downlink Frequencies (MHz)
Time Altitude Azimuth
TMSAT-1 23 Jul 14:40:24 14:45:24 44° 69° (ENE) 14:50:25 436.925 FM
Oscar 16 23 Jul 14:47:50 14:51:56 24° 267° (W) 14:56:03 437.025 USB, Beacon 2401.1428
JAS-1B 23 Jul 14:48:35 14:57:09 85° 73° (ENE) 15:06:58 435.800 - 435.900 CW/SSB
ITAMSAT 1 23 Jul 14:54:56 14:59:54 44° 261° (W) 15:04:54 435.822 SSB
Gurwin Techsat 1B 23 Jul 15:00:27 15:05:46 88° 75° (ENE) 15:11:08 435.225 FM
AO-7 23 Jul 15:02:08 15:09:23 35° 56° (NE) 15:16:38 29.400 - 29.500 MHz
AO-27 23 Jul 15:13:04 15:17:38 30° 264° (W) 15:22:14 436.795 MHz FM
Uribyol 2 23 Jul 15:16:45 15:21:08 27° 265° (W) 15:25:33 436.500 FM
AO-Echo 23 Jul 15:24:03 15:28:22 25° 267° (W) 15:32:44 ?
SO-50 23 Jul 15:30:20 15:34:29 36° 314° (NW) 15:38:44 436.795 FM
Uosat F 23 Jul 15:36:40 15:41:14 36° 67° (ENE) 15:45:48 435.120 FM
RS-15 23 Jul 15:41:52 15:53:00 77° 307° (NW) 16:04:00 29.354 - 29.394 USB, Beacon 29.352 USB
OPAL 23 Jul 16:05:54 16:09:27 19° 94° (E) 16:13:01 ?
KITSAT 1 23 Jul 16:17:41 16:25:47 68° 53° (NE) 16:33:48 435.175 FM
JAS-2 23 Jul 16:18:31 16:22:23 15° 51° (NE) 16:26:07 435.800 - 435.900 CW/SSB, 435.910 FM
TMSAT-1 23 Jul 16:21:07 16:25:29 26° 266° (W) 16:29:53 436.925 FM
UOSAT-12 23 Jul 16:23:38 16:28:13 72° 122° (ESE) 16:32:54 437.025 FM, 437.400 FM
JAS-1B 23 Jul 16:42:07 16:48:49 25° 275° (W) 16:56:13 435.800 - 435.900 CW/SSB
Gurwin Techsat 1B 23 Jul 16:44:19 16:46:27 12° 273° (W) 16:48:35 435.225 FM
AO-7 23 Jul 16:53:27 17:01:43 63° 256° (WSW) 17:10:02 29.400 - 29.500 MHz
Hamsat 23 Jul 17:07:06 17:09:58 18° 65° (ENE) 17:12:52 145.90 MHz
Saudisat 1A 23 Jul 17:11:42 17:15:43 33° 45° (NE) 17:19:42 436.775 MHz
Uosat F 23 Jul 17:15:38 17:20:02 30° 264° (W) 17:24:28 435.120 FM
OPAL 23 Jul 17:43:45 17:48:40 57° 291° (WNW) 17:53:39 ?
RS-15 23 Jul 17:57:56 18:07:25 32° 336° (NNW) 18:16:55 29.354 - 29.394 USB, Beacon 29.352 USB
JAS-2 23 Jul 17:58:23 18:06:05 62° 70° (ENE) 18:13:26 435.800 - 435.900 CW/SSB, 435.910 FM
UOSAT-12 23 Jul 18:05:22 18:08:53 21° 322° (NW) 18:12:26 437.025 FM, 437.400 FM
KITSAT 1 23 Jul 18:13:52 18:20:34 30° 254° (WSW) 18:27:15 435.175 FM
STRAND 1 23 Jul 18:22:16 18:22:22 10° 87° (E) 18:22:28 ?
SO-67 23 Jul 18:26:21 18:28:41 17° 67° (ENE) 18:31:02 435.3500 MHz FM
Hamsat 23 Jul 18:41:40 18:45:38 43° 262° (W) 18:49:39 145.90 MHz
Saudisat 1A 23 Jul 18:51:20 18:55:17 33° 244° (WSW) 18:59:13 436.775 MHz
AO-7 23 Jul 18:53:47 18:56:09 11° 276° (W) 18:58:32 29.400 - 29.500 MHz
JAS-2 23 Jul 19:44:36 19:51:23 31° 267° (W) 19:57:58 435.800 - 435.900 CW/SSB, 435.910 FM
STRAND 1 23 Jul 19:57:11 20:02:20 83° 104° (ESE) 20:07:26 ?
SO-67 23 Jul 19:58:28 20:01:33 30° 264° (W) 20:04:40 435.3500 MHz FM
HO-68 23 Jul 20:08:46 20:15:15 39° 62° (ENE) 20:21:44 435.675 MHz FM
RS-15 23 Jul 20:15:26 20:24:17 27° 11° (NNE) 20:33:14 29.354 - 29.394 USB, Beacon 29.352 USB
UKube-1 23 Jul 20:30:43 20:34:16 25° 65° (ENE) 20:37:49 145.840 MHz, 145.915 MHz
SO-50 23 Jul 20:40:45 20:42:25 12° 28° (NNE) 20:44:04 436.795 FM
Oscar 11 23 Jul 21:21:42 21:25:41 38° 70° (ENE) 21:29:42 145.825 FM, Beacon 2401.500 USB
FUNcube-1 23 Jul 21:28:18 21:31:16 18° 64° (ENE) 21:34:12 145.950 - 145.970 MHz USB
STRAND 1 23 Jul 21:38:05 21:40:50 15° 302° (WNW) 21:43:35 ?
HO-68 23 Jul 21:55:59 22:02:49 46° 261° (W) 22:09:42 435.675 MHz FM
UKube-1 23 Jul 22:06:20 22:10:19 34° 263° (W) 22:14:20 145.840 MHz, 145.915 MHz
SO-50 23 Jul 22:19:34 22:24:08 46° 49° (NE) 22:28:46 436.795 FM
MaSat-1 23 Jul 22:23:43 22:27:15 33° 107° (ESE) 22:31:18 437.345 MHz
RS-15 23 Jul 22:29:09 22:39:53 53° 43° (NE) 22:50:53 29.354 - 29.394 USB, Beacon 29.352 USB
Oscar 11 23 Jul 22:58:47 23:02:01 21° 267° (W) 23:05:16 145.825 FM, Beacon 2401.500 USB
FUNcube-1 23 Jul 23:03:07 23:07:21 47° 261° (W) 23:11:31 145.950 - 145.970 MHz USB
UOSAT-12 23 Jul 23:12:31 23:15:51 19° 36° (NE) 23:19:09 437.025 FM, 437.400 FM
Lituanica SAT-1 23 Jul 23:47:02 23:47:39 11° 135° (SE) 23:48:15 437.275 MHz beacon
SO-50 24 Jul 00:00:36 00:04:29 25° 247° (WSW) 00:08:24 436.795 FM
MaSat-1 24 Jul 00:01:01 00:04:38 28° 310° (NW) 00:08:44 437.345 MHz
RS-15 24 Jul 00:41:47 00:52:19 53° 247° (WSW) 01:03:14 29.354 - 29.394 USB, Beacon 29.352 USB
AO-40 24 Jul 00:49:24 06:19:40 35° 165° (SSE) 08:09:55 Beacon 2401.320
PCSat 24 Jul 00:50:54 00:52:54 12° 102° (ESE) 00:54:55 145.825 MHz
UOSAT-12 24 Jul 00:51:53 00:56:39 86° 236° (SW) 01:01:20 437.025 FM, 437.400 FM
Lituanica SAT-1 24 Jul 01:18:04 01:20:10 51° 332° (NNW) 01:22:17 437.275 MHz beacon
Oscar 16 24 Jul 01:19:10 01:21:44 14° 89° (E) 01:24:17 437.025 USB, Beacon 2401.1428
ISS 24 Jul 01:28:17 01:31:07 26° 137° (SE) 01:33:58 145.800 FM
AO-27 24 Jul 01:47:23 01:48:35 11° 87° (E) 01:49:47 436.795 MHz FM
Uribyol 2 24 Jul 01:49:51 01:51:50 12° 88° (E) 01:53:49 436.500 FM
AO-Echo 24 Jul 01:52:17 01:54:29 13° 87° (E) 01:56:38 ?
Sapphire 24 Jul 01:56:28 02:01:32 42° 113° (ESE) 02:06:37 437.095 MHz 1200 baud AX-25 AFSK
Oscar 19 24 Jul 02:29:07 02:34:13 58° 101° (E) 02:39:18 437.125 CW, 437.150 USB
PCSat 24 Jul 02:30:02 02:35:27 85° 120° (ESE) 02:40:54 145.825 MHz
JAS-1B 24 Jul 02:34:01 02:42:05 30° 88° (E) 02:49:19 435.800 - 435.900 CW/SSB
UOSAT-12 24 Jul 02:34:46 02:36:01 11° 253° (WSW) 02:37:17 437.025 FM, 437.400 FM
Lituanica SAT-1 24 Jul 02:52:06 02:53:20 14° 351° (N) 02:54:34 437.275 MHz beacon
TMSAT-1 24 Jul 02:55:55 02:58:56 15° 89° (E) 03:01:55 436.925 FM
Oscar 16 24 Jul 02:56:31 03:01:41 78° 286° (WNW) 03:06:50 437.025 USB, Beacon 2401.1428
ISS 24 Jul 03:04:23 03:07:41 51° 335° (NNW) 03:10:59 145.800 FM
ITAMSAT 1 24 Jul 03:05:56 03:11:04 59° 101° (E) 03:16:09 435.822 SSB
Gurwin Techsat 1B 24 Jul 03:15:28 03:20:10 31° 95° (E) 03:24:50 435.225 FM
OPAL 24 Jul 03:22:04 03:26:40 41° 66° (ENE) 03:31:18 ?
AO-27 24 Jul 03:23:38 03:28:52 86° 104° (ESE) 03:34:03 436.795 MHz FM
Uribyol 2 24 Jul 03:26:48 03:32:00 86° 285° (WNW) 03:37:09 436.500 FM
AO-Echo 24 Jul 03:28:44 03:33:57 82° 285° (WNW) 03:38:56 ?
Sapphire 24 Jul 03:40:11 03:45:03 33° 312° (NW) 03:49:58 437.095 MHz 1200 baud AX-25 AFSK
Oscar 19 24 Jul 04:09:25 04:13:08 20° 299° (WNW) 04:16:51 437.125 CW, 437.150 USB
Oscar 10/S400 24 Jul 04:15:19 05:21:42 50° 215° (SW) 11:47:31 145.825 - 145.975 CW/USB, Beacon 145.810 USB
PCSat 24 Jul 04:15:37 04:19:34 20° 320° (NW) 04:23:33 145.825 MHz
JAS-1B 24 Jul 04:23:42 04:33:26 74° 290° (WNW) 04:41:58 435.800 - 435.900 CW/SSB
Lituanica SAT-1 24 Jul 04:25:27 04:26:45 14° 10° (N) 04:28:03 437.275 MHz beacon
TMSAT-1 24 Jul 04:34:07 04:39:25 73° 287° (WNW) 04:44:40 436.925 FM
Oscar 16 24 Jul 04:38:24 04:40:10 12° 304° (NW) 04:41:57 437.025 USB, Beacon 2401.1428
ISS 24 Jul 04:42:09 04:44:55 23° 355° (N) 04:47:42 145.800 FM
ITAMSAT 1 24 Jul 04:46:24 04:50:07 20° 299° (WNW) 04:53:50 435.822 SSB
AO-7 24 Jul 04:53:17 05:01:07 42° 99° (E) 05:08:50 29.400 - 29.500 MHz
Gurwin Techsat 1B 24 Jul 04:55:19 05:00:10 37° 293° (WNW) 05:04:59 435.225 FM
OPAL 24 Jul 05:01:37 05:05:42 25° 263° (W) 05:09:47 ?
AO-27 24 Jul 05:04:56 05:07:40 15° 303° (WNW) 05:10:24 436.795 MHz FM
Uribyol 2 24 Jul 05:08:23 05:10:41 13° 304° (WNW) 05:13:00 436.500 FM
AO-Echo 24 Jul 05:09:48 05:11:49 12° 304° (NW) 05:13:50 ?
Uosat F 24 Jul 05:20:53 05:25:56 75° 103° (ESE) 05:30:56 435.120 FM
STRAND 1 24 Jul 05:37:28 05:41:09 20° 61° (ENE) 05:44:50 ?
Lituanica SAT-1 24 Jul 05:57:44 05:59:52 59° 29° (NNE) 06:01:59 437.275 MHz beacon
JAS-1B 24 Jul 06:15:29 06:22:11 22° 312° (NW) 06:28:30 435.800 - 435.900 CW/SSB
TMSAT-1 24 Jul 06:16:45 06:18:24 11° 305° (NW) 06:20:04 436.925 FM
ISS 24 Jul 06:19:20 06:22:21 29° 15° (NNE) 06:25:21 145.800 FM
Hamsat 24 Jul 06:25:48 06:29:32 29° 95° (E) 06:33:17 145.90 MHz
MaSat-1 24 Jul 06:40:18 06:44:16 21° 46° (NE) 06:48:12 437.345 MHz
AO-7 24 Jul 06:46:05 06:53:59 49° 298° (WNW) 07:01:49 29.400 - 29.500 MHz
KITSAT 1 24 Jul 06:48:09 06:55:20 37° 109° (ESE) 07:02:32 435.175 FM
JAS-2 24 Jul 06:52:44 06:58:39 42° 96° (E) 07:03:56 435.800 - 435.900 CW/SSB, 435.910 FM
Uosat F 24 Jul 07:01:09 07:04:07 16° 301° (WNW) 07:07:04 435.120 FM
STRAND 1 24 Jul 07:14:49 07:19:54 59° 259° (W) 07:25:00 ?
SO-67 24 Jul 07:21:23 07:23:36 16° 92° (E) 07:25:50 435.3500 MHz FM
ISS 24 Jul 07:55:57 07:59:18 72° 214° (SW) 08:02:39 145.800 FM
Hamsat 24 Jul 08:01:49 08:05:27 27° 292° (WNW) 08:09:05 145.90 MHz
MaSat-1 24 Jul 08:16:54 08:22:15 77° 245° (WSW) 08:27:24 437.345 MHz
JAS-2 24 Jul 08:38:03 08:43:34 32° 298° (WNW) 08:48:33 435.800 - 435.900 CW/SSB, 435.910 FM
AO-7 24 Jul 08:41:28 08:44:46 13° 321° (NW) 08:48:04 29.400 - 29.500 MHz
KITSAT 1 24 Jul 08:42:26 08:50:24 58° 310° (NW) 08:58:24 435.175 FM
SO-67 24 Jul 08:53:39 08:56:47 31° 289° (WNW) 08:59:53 435.3500 MHz FM
Saudisat 1A 24 Jul 08:58:49 09:02:59 42° 118° (ESE) 09:07:11 436.775 MHz
Sapphire 24 Jul 09:00:51 09:03:05 12° 30° (NNE) 09:05:19 437.095 MHz 1200 baud AX-25 AFSK
HO-68 24 Jul 09:21:49 09:28:08 33° 95° (E) 09:34:23 435.675 MHz FM
PCSat 24 Jul 09:33:55 09:37:49 20° 39° (NE) 09:41:43 145.825 MHz
ISS 24 Jul 09:35:11 09:35:28 10° 230° (SW) 09:35:45 145.800 FM
UKube-1 24 Jul 09:52:49 09:56:49 34° 98° (E) 10:00:47 145.840 MHz, 145.915 MHz
MaSat-1 24 Jul 09:57:33 09:58:41 11° 263° (W) 09:59:48 437.345 MHz
Saudisat 1A 24 Jul 10:38:56 10:42:43 27° 317° (NW) 10:46:32 436.775 MHz
KITSAT 1 24 Jul 10:41:51 10:47:44 21° 335° (NNW) 10:53:37 435.175 FM
Sapphire 24 Jul 10:42:35 10:47:52 49° 53° (NE) 10:53:07 437.095 MHz 1200 baud AX-25 AFSK
Oscar 11 24 Jul 10:43:26 10:47:45 63° 101° (E) 10:52:03 145.825 FM, Beacon 2401.500 USB
FUNcube-1 24 Jul 10:50:55 10:54:30 27° 95° (E) 10:58:03 145.950 - 145.970 MHz USB
HO-68 24 Jul 11:09:12 11:16:05 53° 294° (WNW) 11:22:56 435.675 MHz FM
PCSat 24 Jul 11:16:31 11:21:59 87° 240° (WSW) 11:27:24 145.825 MHz
UKube-1 24 Jul 11:29:20 11:32:52 24° 295° (WNW) 11:36:22 145.840 MHz, 145.915 MHz
Oscar 19 24 Jul 12:11:27 12:14:07 14° 58° (ENE) 12:16:47 437.125 CW, 437.150 USB
Oscar 11 24 Jul 12:21:08 12:23:27 14° 298° (WNW) 12:25:45 145.825 FM, Beacon 2401.500 USB
Sapphire 24 Jul 12:26:33 12:31:01 27° 251° (WSW) 12:35:28 437.095 MHz 1200 baud AX-25 AFSK
FUNcube-1 24 Jul 12:27:20 12:30:51 27° 292° (WNW) 12:34:22 145.950 - 145.970 MHz USB
Oscar 16 24 Jul 12:37:11 12:41:17 25° 63° (ENE) 12:45:23 437.025 USB, Beacon 2401.1428
KITSAT 1 24 Jul 12:42:23 12:46:51 15° 6° (N) 12:51:18 435.175 FM
ITAMSAT 1 24 Jul 12:48:54 12:51:55 16° 58° (ENE) 12:54:56 435.822 SSB
RS-15 24 Jul 12:58:20 13:06:12 23° 101° (E) 13:13:55 29.354 - 29.394 USB, Beacon 29.352 USB
HO-68 24 Jul 12:59:53 13:02:12 12° 315° (NW) 13:04:31 435.675 MHz FM
PCSat 24 Jul 13:02:18 13:04:33 13° 258° (WSW) 13:06:49 145.825 MHz
AO-27 24 Jul 13:05:39 13:09:34 22° 62° (ENE) 13:13:31 436.795 MHz FM
AO-Echo 24 Jul 13:05:43 13:09:43 22° 62° (ENE) 13:13:43 ?
Uribyol 2 24 Jul 13:08:22 13:12:26 24° 63° (ENE) 13:16:31 436.500 FM
JAS-1B 24 Jul 13:19:17 13:26:46 31° 55° (NE) 13:34:52 435.800 - 435.900 CW/SSB
Oscar 19 24 Jul 13:47:39 13:52:45 85° 256° (WSW) 13:57:55 437.125 CW, 437.150 USB
AO-7 24 Jul 14:05:43 14:10:37 17° 44° (NE) 14:15:31 29.400 - 29.500 MHz
Oscar 16 24 Jul 14:15:29 14:20:22 45° 261° (W) 14:25:18 437.025 USB, Beacon 2401.1428
SO-50 24 Jul 14:16:12 14:20:39 75° 123° (ESE) 14:25:13 436.795 FM
TMSAT-1 24 Jul 14:17:44 14:22:13 29° 65° (ENE) 14:26:42 436.925 FM
ITAMSAT 1 24 Jul 14:25:32 14:30:45 80° 256° (WSW) 14:36:01 435.822 SSB
